Weather in Usolye

Russia / Samara Oblast     53°23′32″N   49°03′29″E
temp.,
°C
wind,
m/s
gust,
m/s
humid.,
%
clouds,
%
prec.,
mm/h
press.,
hPa
HPBL,
m
25 february, thu
thu2501:00−25nw229188 0.0 103620
04:00−25wsw128994 0.0 103620
07:00−24ssw228898 0.0 103520
10:00−22ssw478899 0.0 1033222
13:00−18s61088100 0.0 1030345
16:00−17s81395100 0.4 1027450
19:00−16s81495100 0.9 1023606
22:00−15s81394100 2.1 1021590
26 february, fri
fri2601:00−13s71294100 0.8 1018527
04:00−12s61194100 1.4 1017430
07:00−11s599499 0.4 1014309
10:00−10s589496 0.5 1015318
13:00−7s5794100 0.3 1013336
16:00−6s6995100 0.5 1011331
19:00−5s71295100 0.9 1008300
22:00−1s81397100 2.6 1003352
27 february, sat
sat2701:00+2sw715100100 4.6 998455
04:00+2w61397100 4.9 998459
07:00+1wsw51389100 0.1 998644
10:000wsw6128999 0.1 999645
13:00+1wsw5119990 0.1 998553
16:00+1wsw5119390 0.1 998544
19:00−2wsw599173 0.0 998160
22:00−1wsw5109786 0.3 998390
28 february, sun
sun2801:00−4n5896100 0.5 999294
04:00−10nnw51093100 0.7 1001449
07:00−13nnw6118999 0.3 1003426
10:00−14nnw5108968 0.3 1006464
13:00−13nnw6108899 0.0 1008534
16:00−12nnw698899 0.0 1010590
19:00−16nnw4119175 0.0 1012371
22:00−16nnw4119275 0.0 1015372
1 march, mon
mon101:00−17nnw4109489 0.0 1016257
04:00−18nnw499379 0.0 1018217
07:00−18nnw4109479 0.0 1019316
10:00−17n6109387 0.1 1021368
13:00−15n589087 0.0 1022414
16:00−14n588958 0.0 1023408
19:00−17nnw33923 0.0 102434
22:00−18wnw22911 0.0 102420